sat.trackr.live / text

‹ back to catalog

STARLINK-36493

NORAD 67456 · 2026-008M

PAYLOAD ACTIVE UNKNOWN

§ Identity

Operator
Country
US
Launch date
2026-01-14
Launch site
AFETR
Launch vehicle
Mass (kg)
RCS (m²)

Purposes: comms

External: N2YO · Heavens-Above · Gunter

§ Orbital elements

Epoch: 2026-09-19T03:59:28.853088Z

Period
94.27 min
Inclination
42.9983°
Eccentricity
0.0001230
Mean motion
15.27586703 rev/d
Perigee alt
482.2 km
Apogee alt
483.9 km
Semi-major
6,861.2 km
B*
3.6544e-4
RAAN
192.4226°
Arg perigee
249.2377°
Mean anomaly
110.8343°
Rev number
3,916

§ Raw data

STARLINK-364931 67456U 26008M   26262.16630617  .00009810  00000+0  36544-3 0  99942 67456  42.9983 192.4226 0001230 249.2377 110.8343 15.27586703 39164

JSON: /api/v1/satellites/67456 · /tle

For live sub-satellite position, see the globe view (requires WebGL).

§ Visibility from observer

Set your observer location to see the next 7 days of passes ≥ 10°. The values pass through the URL so the page stays shareable.

No JS? Fill the form by hand. The geolocation button needs JavaScript.